Regional Weather Roundup
Issued by NWS

Home | Current Version | Previous Version | Graphics & Text | Print | Product List | Glossary On
Versions: 1 2 3 4 5 6 7 8 9 10 11 12 13 14 15 16 17 18 19 20 21 22 23 24 25 26 27 28 29 30 31 32 33 34 35 36 37 38 39 40 41 42 43 44 45 46 47 48 49 50
000
ASUS43 KLOT 222011
RWRIL

ILLINOIS REGIONAL WEATHER ROUNDUP
NATIONAL WEATHER SERVICE CHICAGO/ROMEOVILLE IL
300 PM CDT SUN OCT 22 2017

NOTE: "FAIR" INDICATES FEW OR NO CLOUDS BELOW 12,000 FEET WITH NO
SIGNIFICANT WEATHER AND/OR OBSTRUCTIONS TO VISIBILITY.

* THESE STATIONS ARE NOT UNDER NWS QUALITY CONTROL. THEY ALSO MAY NOT
  REPORT WEATHER SUCH AS PRECIPITATION OR FOG.

ILZ001-002-007-009-015-016-024-222100-
NORTHWEST ILLINOIS

CITY           SKY/WX    TMP DP  RH WIND       PRES   REMARKS
MOLINE         LGT RAIN  54  47  77 NW5       30.05R
STERLING*      LGT RAIN  52  50  93 N8          N/A
SAVANNA*       LGT RAIN  53  48  83 NW8       30.04R
$$

ILZ003-004-008-010-011-017-018-222100-
NORTH CENTRAL ILLINOIS

CITY           SKY/WX    TMP DP  RH WIND       PRES   REMARKS
ROCKFORD       LGT RAIN  51  47  86 N14       30.03R FOG
FREEPORT*      LGT RAIN  51  48  90 NW6       30.04R
ROCHELLE*      RAIN      51  48  92 N9        30.02S
DE KALB*       LGT RAIN  50  48  94 N16G23    30.01S
PERU*          DRIZZLE   51  48  89 N20G25    30.03R
$$

ILZ005-006-012>014-019>023-222100-
NORTHEAST ILLINOIS

CITY           SKY/WX    TMP DP  RH WIND       PRES   REMARKS
CHICAGO-OHARE  LGT RAIN  55  52  89 NW26G36   29.96R FOG
CHICAGO-MIDWAY LGT RAIN  68  64  87 SW14      29.94R FOG
AURORA         LGT RAIN  52  50  93 NW20G28   29.99R FOG
LANSING*       CLOUDY    70  63  79 S17       29.94S
JOLIET*        DRIZZLE   56  55  97 NW16G25   29.97R
WAUKEGAN       LGT RAIN  52  51  97 N10G17    29.98R FOG
DUPAGE AIRPORT LGT RAIN  53  53 100 N18G29    29.98R FOG
KANKAKEE*      CLOUDY    68  61  77 S15G25    29.96R
WHEELING       LGT RAIN  54  53  97 NW18G30   29.99R FOG
MORRIS*        DRIZZLE   53  52  94 NW13      29.98R
ROMEOVILLE*    DRIZZLE   54  53  95 NW21G26   29.97R
NORTHERLY ISL    N/A     71  58  63 S13         N/A
$$

LMZ740>746-222100-
SOUTHERN LAKE MICHIGAN

STATION/POSITION SKY/WX   TEMP    WIND        PRES    VSBY  WAVE
                          AIR SEA DIR/SP/G                  HT/PER
                          (F)     (DEG/KT/KT) (MB)    (MI)  (FT/S)
SOUTHERN BUOY              63 61  170/ 16/ 19 1012.7          4/ 5
WILMETTE HARBOR               58  310/ 17/ 27   N/A           2/ 4
HARRISON CRIB              70     190/ 19/ 22   N/A
BURNHAM HARBOR             70     160/ 15/ 17   N/A
CALUMET HARBOR             71     170/  9/ 18 1012.7R
BURNS HARBOR               71     190/ 16/ 22 1014.2R
MICHIGAN CITY              71     190/ 23/ 26   N/A
MICHIGAN CITY 6N           68 58  200/ 16/ 25   N/A           2/ 3
ST. JOSEPH                 67 60  200/ 14/ 19 1014.3          3/ 4
$$

ILZ025>027-034>036-040-047-049-050-058-095>099-222100-
WEST-CENTRAL ILLINOIS

CITY           SKY/WX    TMP DP  RH WIND       PRES   REMARKS
QUINCY         CLOUDY    54  48  80 NW12      30.07R
MACOMB*        CLOUDY    53  50  90 N8        30.08R
JACKSONVILLE*  CLOUDY    53  51  92 N8        30.05R
PITTSFIELD*    CLOUDY    55  49  81 N8        30.07R
$$

ILZ028>032-037-038-041>044-048-051>054-059>061-222100-
CENTRAL ILLINOIS

CITY           SKY/WX    TMP DP  RH WIND       PRES   REMARKS
PONTIAC        CLOUDY    54  53  98 NW16      30.01R FOG
BLOOMINGTON    RAIN      53  51  93 N18       30.02R FOG
DECATUR        LGT RAIN  58  56  93 NW13G23   30.00R
PEORIA         CLOUDY    53  50  89 N9        30.03R
LACON*         CLOUDY    52  50  93 N7        30.03R
LINCOLN*       DRIZZLE   55  55 100 N7        30.03R
SPRINGFIELD    LGT RAIN  54  53  97 N13G22    30.05R FOG
TAYLORVILLE    DRIZZLE   55  54  97 NW13      30.02R
$$

ILZ033-039-045-046-055>057-062-063-222100-
EAST-CENTRAL ILLINOIS

CITY           SKY/WX    TMP DP  RH WIND       PRES   REMARKS
CHAMPAIGN      CLOUDY    71  61  70 S21G26    29.97R
DANVILLE*      RAIN      70  61  74 SW13G22   29.96R
RANTOUL*       CLOUDY    71  64  79 S21G26    29.97R
MATTOON        CLOUDY    71  63  75 S9G21     29.96S
PARIS*         CLOUDY    75  63  64 S16       29.99S
$$

ILZ079-100>102-222100-
SOUTHWEST ILLINOIS

CITY           SKY/WX    TMP DP  RH WIND       PRES   REMARKS
ALTON          LGT RAIN  54  54 100 NW16G23   30.04R
CAHOKIA*       CLOUDY    59  53  80 NW21      30.04R
SPARTA*        DRIZZLE   59  58  97 NW10G22   30.01R
$$

ILZ064>066-069>071-074>076-080>082-084>086-088>090-092>094-222100-
SOUTH-CENTRAL ILLINOIS

CITY           SKY/WX    TMP DP  RH WIND       PRES   REMARKS
CARBONDALE     LGT RAIN  69  67  93 SW7       29.96S
CAIRO*         CLOUDY    74  63  68 S8        29.95S
EFFINGHAM*     LGT RAIN  72  64  77 S3        29.98S
MARION         CLOUDY    73  64  73 S10       29.98S
MT. VERNON     CLOUDY    73  63  70 S14       29.97S
CENTRALIA*     RAIN      67  65  93 NW15      29.97R
SALEM*         CLOUDY    71  64  76 W10G17    29.96S
METROPOLIS*    CLOUDY    76  62  61 S8        29.97F
$$

ILZ067-068-072-073-078-083-087-091-222100-
SOUTHEAST ILLINOIS

CITY           SKY/WX    TMP DP  RH WIND       PRES   REMARKS
LAWRENCEVILLE  CLOUDY    77  60  55 S25       29.99S
FLORA*         CLOUDY    75  64  67 S14G21    29.97S
FAIRFIELD*     CLOUDY    74  62  64 S10       29.97R
HARRISBURG*    CLOUDY    76  63  63 S20       29.98S
ROBINSON*      CLOUDY    76  59  56 S15G24    29.99F
CARMI*         CLOUDY    75  62  62 S13       29.98S
$$

ABBREVIATIONS USED IN REMARKS
   TC - TEMPERATURE IN CELSIUS
  WCI - WIND CHILL INDEX
   HX - HEAT INDEX
  VSB - VISIBILITY
$$





USA.gov is the U.S. government's official web portal to all federal, state and local government web resources and services.